SCP
0 0 0 0 0 1 1 1 1 1 1 1 1 1 1 0 0 0 0 0 0 0 0 0 0 0 0 0 0 0 0 0 0 0 0 0 0 0 0 0 0 0 0
0 0 0 0 0 1 1 1 1 1 1 1 1 1 1 1 0 0 0 0 0 0 0 0 0 0 0 0 0 0 0 0 0 0 0 0 0 0 0 0 0 0 0
0 0 0 0 0 1 1 1 1 1 1 1 1 1 1 1 0 0 0 0 0 0 0 0 0 0 0 0 0 0 0 0 0 0 0 0 0 0 0 0 0 0 0
0 0 0 0 0 1 1 1 1 1 1 1 1 1 1 1 0 0 0 0 0 0 0 0 0 0 0 0 0 0 0 0 0 0 0 0 0 0 0 0 0 0 0
1 0 0 1 1 1 1 1 1 1 1 1 1 1 1 1 0 0 0 0 0 0 0 0 0 0 0 0 0 0 0 0 0 0 0 0 0 0 0 0 0 0 0
1 1 1 1 1 1 1 1 1 1 1 1 1 1 1 0 0 0 0 0 0 0 0 0 0 0 0 0 0 0 0 0 0 0 0 0 0 0 0 0 0 0 0
1 1 1 1 1 1 1 1 1 1 1 1 1 1 1 0 0 0 0 0 0 0 0 0 0 0 0 0 0 0 0 0 0 0 0 0 0 0 0 0 0 0 0
1 1 1 1 1 1 1 1 1 1 1 1 1 1 1 0 0 0 0 0 0 0 0 0 0 0 0 0 0 0 0 0 0 0 0 0 0 0 0 0 0 0 0
1 1 1 1 1 1 1 1 1 1 1 1 1 1 1 0 0 0 0 0 0 0 0 0 0 0 0 0 0 0 0 0 0 0 0 0 0 0 0 0 0 0 0
1 1 1 1 1 1 1 1 1 1 1 1 1 1 1 0 0 0 0 0 0 0 0 0 0 0 0 0 0 0 0 0 0 0 0 0 0 0 0 0 0 0 0
1 1 1 1 1 1 1 1 1 1 1 1 1 1 1 0 0 0 0 0 0 0 0 0 0 0 0 0 0 0 0 0 0 0 0 0 0 0 0 0 0 0 0
1 1 1 1 1 1 1 1 1 1 1 1 1 1 0 0 0 0 0 0 0 0 0 0 0 0 0 0 0 0 0 0 0 0 0 0 0 0 0 0 0 0 0
1 1 1 1 1 1 1 1 1 1 1 1 1 1 0 0 0 0 0 0 0 0 0 0 0 0 0 0 0 0 0 0 0 0 0 0 0 0 0 0 0 0 0
1 1 1 1 1 1 1 1 1 1 1 1 1 1 0 0 0 0 0 0 0 0 0 0 0 0 0 0 0 0 0 0 0 0 0 0 0 0 0 0 0 0 0
1 1 1 1 1 1 1 1 1 1 1 1 1 1 0 0 0 0 0 0 0 0 0 0 0 0 0 0 0 0 0 0 0 0 0 0 0 0 0 0 0 0 0
1 1 1 1 1 1 1 1 1 1 1 1 1 1 0 0 0 0 0 0 0 0 0 0 0 0 0 0 0 0 0 0 0 0 0 0 0 0 1 1 0 0 0
1 1 1 1 1 1 1 1 1 1 1 1 1 0 0 0 0 0 0 0 0 0 0 0 0 0 0 0 0 0 0 0 0 0 0 0 0 0 0 0 0 0 0
1 1 1 1 1 1 1 1 1 1 1 1 0 0 0 0 0 0 0 0 0 0 0 0 0 0 0 0 0 0 0 0 0 0 0 0 0 0 0 0 0 0 0
1 1 1 1 1 1 1 1 1 1 0 0 0 0 0 0 0 0 0 0 0 0 0 0 0 0 0 0 0 0 0 0 0 0 0 0 0 0 0 0 0 0 0
1 1 1 1 1 1 1 1 0 0 0 0 0 0 0 0 0 0 0 0 0 0 0 0 0 0 0 0 0 0 0 0 0 0 0 0 0 0 0 0 0 0 0
1 1 1 1 0 0 0 0 0 0 0 0 0 0 0 0 0 0 -0 0 0 0 0 0 0 0 0 0 0 0 0 0 0 0 0 0 0 0 0 0 0 0 0
1 1 1 1 0 0 0 0 0 0 0 0 0 0 0 0 0 0 -0 -0 0 0 0 0 0 0 0 0 0 0 0 0 0 0 0 0 0 0 0 0 0 0 0
1 1 1 0 0 0 0 0 0 0 0 0 0 0 0 0 0 0 0 0 0 0 0 0 0 0 0 0 0 0 0 0 0 0 0 0 0 0 0 0 0 0 0
1 1 0 0 0 0 0 0 0 0 0 0 0 0 0 0 0 0 0 0 0 0 0 0 0 0 0 0 0 0 0 0 0 0 0 0 0 0 0 0 0 0 0
0 0 0 0 0 0 0 0 0 0 0 0 0 0 0 0 0 0 0 0 0 0 0 0 0 0 0 0 0 0 0 0 0 0 0 0 0 0 0 0 0 0 0
0 0 0 0 0 0 0 0 0 0 0 0 0 0 0 0 0 0 0 0 0 0 0 0 0 0 0 0 0 0 0 0 0 0 0 0 0 0 0 0 0 0 0
Wind_Speed
8 11 17 16 15 13 15 17 18 18 18 19 19 18 18 17 16 16 15 14 14 13 13 13 13 13 13 14 14 14 14 14 14 14 14 14 14 14 14 14 13 10 14
12 13 18 17 16 15 15 17 17 18 18 18 18 18 17 16 15 15 14 14 13 13 13 13 13 13 13 13 14 13 13 13 12 12 13 13 14 14 13 13 12 9 13
13 13 16 18 17 16 16 16 17 18 18 18 18 17 17 16 15 15 14 14 13 13 13 13 13 13 13 13 13 12 12 11 10 11 10 7 9 12 13 13 12 12 12
12 11 13 18 17 17 17 16 17 18 18 18 17 17 16 16 15 15 14 14 13 13 13 13 13 13 12 12 11 11 11 10 10 10 5 4 5 11 12 13 12 12 11
10 9 13 20 17 17 17 16 16 17 17 17 16 16 16 15 14 14 14 13 13 12 12 12 12 12 11 10 10 9 9 8 8 7 4 4 4 10 12 12 12 12 11
10 9 12 19 18 17 17 16 16 17 16 16 15 15 14 14 13 13 13 12 12 11 11 11 11 10 10 9 8 7 7 7 7 4 4 4 4 9 11 11 11 11 11
10 8 10 17 17 17 17 16 16 16 15 14 14 14 13 12 11 11 11 11 11 10 10 10 9 8 8 7 6 5 5 6 5 4 4 4 5 8 10 11 11 11 11
11 9 10 16 18 17 17 16 14 14 13 13 13 12 11 11 10 10 10 10 9 9 8 8 7 7 6 5 4 4 3 4 4 4 4 5 6 8 10 10 10 10 10
10 10 8 10 13 16 15 15 14 14 13 12 12 11 11 10 10 10 9 9 8 7 7 6 5 5 4 3 3 2 2 3 3 2 3 3 6 8 9 9 10 10 10
9 9 8 8 8 8 9 15 15 14 13 13 13 12 11 10 9 9 7 7 7 6 5 4 3 3 2 1 2 2 2 2 1 1 1 3 7 9 9 9 10 10 9
9 7 8 8 8 7 7 11 13 14 13 12 10 12 9 4 4 4 6 6 6 5 4 3 2 1 1 2 2 2 2 1 0 1 1 4 7 8 8 8 9 9 9
11 10 8 8 8 8 8 6 5 6 6 6 4 5 4 3 3 3 3 6 5 5 4 2 1 0 1 1 2 2 1 0 1 1 2 5 7 8 8 7 8 8 8
11 10 8 8 8 7 5 5 4 3 4 4 5 5 4 3 2 2 1 1 1 2 1 0 1 1 1 0 1 1 0 1 1 1 2 5 6 7 7 6 7 8 8
10 10 9 8 7 6 5 5 5 4 4 4 4 5 4 3 2 2 1 1 1 1 1 1 0 0 1 1 1 1 0 0 1 1 2 5 5 6 6 7 7 7 7
9 9 9 9 8 7 5 4 5 5 5 5 4 5 5 3 3 2 2 1 1 1 1 1 1 1 1 1 1 1 1 1 1 1 1 3 3 3 4 5 5 5 5
8 8 7 8 7 7 6 5 4 4 4 4 4 5 5 3 3 2 2 2 1 1 2 2 2 1 1 2 2 2 3 3 3 2 2 3 4 2 0 2 2 3 3
6 7 8 8 7 7 6 5 4 4 4 4 3 3 4 4 3 2 2 2 1 2 2 2 2 2 2 2 3 3 3 4 4 4 4 3 3 4 4 3 2 2 2
4 4 5 6 7 7 5 4 3 3 3 3 3 3 3 3 3 3 2 1 2 2 2 2 2 2 2 2 3 3 3 4 5 4 4 4 3 3 5 6 6 5 5
4 4 3 3 4 5 4 3 4 3 3 3 3 3 3 3 3 3 2 2 3 3 2 2 2 2 3 3 3 4 4 4 4 5 5 5 5 5 4 6 8 7 6
4 4 4 4 4 4 4 3 3 4 4 3 3 4 4 3 4 3 2 2 3 3 3 3 4 3 3 3 5 5 4 4 4 5 5 5 5 6 6 6 5 6 8
4 4 4 4 3 3 3 3 3 3 4 4 4 5 6 5 5 5 3 3 3 3 3 4 3 4 3 1 3 3 4 5 6 5 4 5 6 6 6 6 5 5 5
3 3 4 4 3 4 2 3 3 4 4 4 5 6 7 6 6 5 5 4 4 4 4 3 2 3 3 2 1 2 1 2 4 5 5 6 6 6 7 7 7 6 5
4 3 2 4 4 5 5 5 6 5 4 4 5 5 6 7 7 7 7 6 6 5 4 4 3 4 3 3 3 1 2 2 1 3 5 6 6 6 6 6 8 7 7
6 5 4 4 5 6 5 6 6 6 6 5 5 5 7 8 8 8 8 8 7 6 6 5 5 3 3 2 3 4 3 2 3 2 2 4 6 7 7 6 6 7 7
6 6 5 5 5 6 5 6 7 8 7 6 6 9 8 8 8 9 8 8 8 7 7 8 7 7 5 4 3 2 3 4 4 3 2 2 3 4 5 5 5 5 6
7 7 6 6 6 6 7 7 9 12 11 10 8 8 7 6 7 9 9 9 8 7 8 8 8 9 7 8 6 5 3 3 2 3 2 1 1 2 3 4 5 5 4
Wind_Direction
152 152 156 155 152 143 133 126 122 121 121 121 123 124 125 126 127 128 128 126 123 119 116 112 109 107 105 105 106 108 111 114 116 119 122 123 122 121 119 117 116 117 119
146 151 155 155 152 146 137 130 126 124 123 123 123 124 125 125 126 127 126 125 123 120 118 115 113 112 111 110 111 113 115 117 119 121 122 124 126 126 125 124 123 124 124
142 149 153 155 153 147 140 135 131 129 128 127 126 126 126 126 126 126 126 125 123 122 120 119 117 115 113 113 115 116 116 115 115 113 109 111 125 130 132 131 130 128 129
141 145 152 155 153 148 143 138 135 133 132 131 130 129 129 128 128 127 127 126 125 124 123 122 119 117 116 117 118 117 116 116 114 113 103 113 130 136 137 136 136 134 134
140 144 156 156 154 150 146 142 139 137 135 134 132 131 131 130 129 129 130 129 128 128 126 123 121 120 119 119 119 119 119 119 121 121 122 116 122 144 143 143 144 143 141
143 147 159 157 155 152 149 146 143 141 139 137 135 134 133 133 132 133 133 132 132 131 128 126 124 122 120 119 119 117 116 117 118 127 138 138 142 155 153 152 152 151 150
145 150 159 157 156 155 154 151 148 145 143 140 139 138 138 137 136 136 137 137 137 135 133 131 128 124 120 118 116 111 112 117 121 137 149 152 163 166 163 162 161 160 159
148 149 156 160 160 160 159 156 152 149 148 145 144 144 143 142 142 143 143 143 143 141 138 136 131 125 117 112 108 101 96 105 117 145 159 164 178 178 174 172 169 169 168
145 150 155 161 165 165 163 160 156 154 153 151 150 150 150 151 151 151 150 149 149 148 146 142 135 126 118 108 96 83 72 88 109 147 171 175 190 188 186 181 178 178 177
143 152 156 159 158 161 164 167 164 161 159 159 159 159 160 161 161 161 155 158 159 161 160 153 144 132 114 82 54 37 34 66 94 161 176 200 203 196 195 189 186 187 185
153 156 162 162 160 159 162 173 169 167 167 165 166 169 163 154 155 160 166 174 175 178 179 173 170 150 66 24 9 3 26 60 176 230 225 228 216 209 205 198 195 195 192
166 169 170 169 166 162 171 163 158 162 161 161 160 162 148 141 153 159 180 193 195 195 199 197 200 70 46 26 356 1 32 239 231 240 238 241 228 221 219 209 204 202 201
169 173 176 174 169 166 163 154 155 151 152 157 161 153 142 138 145 142 137 201 211 198 153 41 40 56 49 354 336 337 275 228 237 250 249 246 237 232 227 219 209 209 206
165 175 177 173 169 168 162 163 161 159 161 167 167 158 152 158 168 164 164 172 165 145 147 124 85 42 35 25 29 16 345 205 240 256 263 257 243 239 237 229 218 213 208
166 182 182 177 173 167 158 165 171 174 171 172 167 166 164 173 182 181 181 171 179 173 164 154 131 81 55 48 43 34 14 12 358 320 311 299 269 247 240 231 222 210 210
173 183 184 182 176 168 168 170 173 175 166 161 167 176 174 174 179 176 176 172 179 175 154 145 144 110 65 52 40 30 20 16 25 26 19 13 24 31 267 213 208 197 199
177 180 179 181 176 177 172 177 166 167 156 153 157 167 172 169 172 168 170 173 173 148 133 120 106 85 76 64 45 33 32 30 34 34 32 30 24 32 49 67 78 82 89
150 161 174 189 177 175 170 165 151 148 147 138 135 138 153 159 160 153 154 158 131 115 117 117 108 91 78 71 61 46 41 39 38 40 44 41 37 30 36 50 56 64 67
127 127 135 129 151 155 148 141 124 118 119 115 117 117 121 132 131 128 129 125 115 108 108 116 92 99 98 91 82 62 47 41 33 39 41 38 41 40 36 45 51 54 56
105 113 119 107 111 128 124 114 106 107 101 93 94 93 93 93 101 106 101 91 99 106 100 100 98 83 86 95 90 74 55 46 42 36 34 35 39 42 40 36 35 40 46
84 102 112 105 108 109 121 139 128 117 108 95 79 79 80 80 86 90 92 84 86 94 101 107 108 96 75 72 104 86 57 51 52 39 36 41 40 40 43 41 40 35 36
74 93 103 101 114 116 132 138 121 115 103 92 81 68 72 82 84 91 91 86 81 91 86 84 102 106 64 27 105 127 112 56 39 35 37 42 38 40 43 43 43 43 41
46 39 70 86 97 109 113 111 114 111 104 95 84 70 59 71 78 82 85 86 77 77 78 67 72 102 111 55 39 113 155 167 109 38 38 40 37 40 39 40 43 40 41
37 30 34 64 82 88 103 122 132 122 112 99 93 85 69 64 71 76 79 81 79 76 75 65 55 64 100 101 61 43 52 104 138 121 36 30 38 40 37 39 38 36 34
43 38 32 47 73 96 105 118 119 105 99 99 95 88 78 68 66 71 74 77 76 73 72 71 67 63 64 74 71 60 56 51 54 110 103 26 32 28 31 34 35 31 28
49 51 46 53 56 65 84 100 115 118 117 113 104 97 85 77 70 68 75 76 77 77 75 74 73 71 72 73 68 60 62 65 55 79 107 80 41 10 13 23 30 22 17